Lid_Strength_Index
4 7 6 8 13 14 16 14 12 12 11 10 9 8 10 11 12 12 8 8 5 5 3 2 1 2 1 2 2 2 1 -1 -2 -1 -1 -1 -2 -2 -1 -1 -1 -2 -1 -1 -1 -1 -1 -1 -2
6 6 7 11 15 18 17 14 13 12 12 12 10 10 11 13 10 11 10 8 7 6 5 3 1 2 2 2 3 3 2 1 1 -1 -2 -1 -1 -1 -1 -1 -1 -1 -1 -1 -1 -1 -1 -1 -2
8 6 9 14 16 17 16 13 13 12 13 11 11 11 12 12 11 11 9 8 8 8 6 4 2 2 2 3 3 4 4 3 2 1 0 -1 -1 -1 -2 -1 -1 -1 -1 -1 -1 -1 -2 -2 -2
7 9 11 14 16 15 14 14 14 13 13 13 12 13 12 11 11 9 8 8 8 9 8 5 3 3 2 3 4 3 4 4 4 3 2 2 0 -0 -1 -1 -2 -2 -1 -1 -2 -2 -2 -2 -2
10 12 15 16 15 14 14 14 14 14 13 13 12 13 13 10 9 8 8 8 8 8 8 7 4 3 3 3 3 3 4 4 5 4 4 4 3 2 1 -1 -1 -2 -2 -1 -2 -2 -2 -1 -2
12 13 17 17 16 14 14 15 14 13 14 13 12 12 12 9 9 9 8 9 8 9 8 8 7 5 4 4 4 3 3 3 4 4 5 5 5 4 2 1 -1 -1 -2 -2 -2 -2 -2 -1 -1
13 15 16 17 16 14 13 14 14 14 14 14 13 13 12 10 9 8 9 9 9 9 9 9 9 8 7 6 5 5 4 4 4 4 5 6 6 5 4 3 1 -1 -1 -2 -2 -2 -2 -1 -2
13 14 16 16 16 15 15 14 14 14 15 13 13 14 13 11 9 9 9 9 9 9 10 10 9 9 9 8 7 6 6 6 6 6 5 5 7 7 6 4 3 2 1 -1 -1 -1 -2 -1 -1
12 15 17 16 17 16 15 15 14 13 14 14 13 13 11 10 9 9 10 10 10 9 10 9 9 9 9 8 9 8 7 7 7 7 7 7 6 7 6 5 3 3 2 -0 -1 -1 -1 -1 -0
15 17 17 17 16 17 16 15 15 14 15 14 13 11 10 10 10 10 11 10 11 10 10 10 10 10 10 9 9 8 8 8 8 8 8 7 7 6 5 5 3 4 3 2 -0 -1 -0 1 -1
15 17 16 16 15 15 15 15 14 15 16 15 15 13 11 10 10 11 10 11 11 10 10 10 10 10 9 9 9 9 9 9 8 8 8 7 7 6 6 4 3 3 5 3 -0 -1 -1 -1 -1
17 14 15 14 13 14 15 14 15 15 14 13 13 12 11 11 11 10 11 11 11 10 11 10 10 10 9 9 9 9 9 9 9 8 8 8 7 7 6 6 5 3 2 4 4 0 -1 -1 -1
15 15 14 13 13 14 14 15 15 15 14 13 13 12 12 12 11 10 10 10 10 11 10 10 10 10 9 9 9 9 9 9 9 8 8 7 8 7 6 6 5 4 2 2 4 4 0 -0 -0
14 14 14 14 14 14 15 15 15 14 14 14 13 12 12 12 11 11 11 10 11 11 11 10 10 10 10 10 10 9 9 9 9 9 9 8 7 7 7 6 6 5 4 2 3 4 5 3 -0
14 16 15 15 14 15 15 17 17 14 13 13 13 13 12 12 11 11 11 11 11 11 11 11 10 10 10 10 10 10 10 9 10 9 9 8 7 7 7 6 6 5 5 4 3 4 4 5 2
17 17 19 16 15 14 15 18 16 14 15 14 14 13 13 12 11 11 11 11 11 11 11 11 11 11 11 11 10 11 10 10 9 9 9 8 8 8 8 7 6 5 4 4 4 3 4 5 5
19 22 19 18 15 15 15 18 15 14 14 14 14 14 14 13 12 12 11 11 11 11 11 11 11 11 11 11 11 11 10 9 8 8 8 7 7 7 7 7 6 5 5 4 4 3 2 3 5
22 21 19 20 17 16 18 18 15 15 15 15 15 15 14 13 12 12 11 11 11 11 11 12 11 11 11 11 11 10 10 10 9 9 8 7 7 7 6 6 6 6 5 5 4 4 2 1 2
19 19 20 19 17 17 18 18 16 14 16 16 16 15 14 14 12 12 12 11 12 12 12 12 12 11 11 11 12 11 12 11 10 9 8 8 7 7 7 6 6 5 5 5 5 4 3 3 1
18 22 22 18 17 17 19 19 16 16 16 15 15 15 14 14 14 13 12 12 12 12 12 12 11 11 11 11 11 11 12 11 10 9 9 8 7 7 7 6 6 5 5 5 5 4 4 3 2
19 21 22 20 18 18 20 20 19 16 15 14 14 14 15 14 14 13 13 12 12 13 13 12 11 11 11 11 12 12 11 11 11 10 10 8 8 8 7 7 7 6 5 5 5 4 4 4 3
21 17 17 19 23 25 20 25 19 18 17 15 14 15 15 15 14 14 13 13 13 12 12 12 12 11 12 12 13 13 13 14 12 12 11 10 9 8 7 7 7 6 5 5 4 4 3 3 4
19 17 18 20 24 25 24 26 21 18 18 17 16 15 15 15 14 14 13 13 12 12 12 12 12 12 12 12 13 13 14 13 12 11 11 10 9 8 8 7 7 6 5 5 4 4 3 2 2
17 20 21 24 28 28 28 26 22 20 18 17 16 15 15 14 14 14 13 13 12 12 12 13 13 13 12 13 13 14 14 14 13 12 12 11 10 8 8 7 6 5 5 4 4 4 3 2 1
19 25 27 27 29 26 32 26 20 18 18 17 16 15 15 15 15 15 14 14 13 12 12 13 13 14 13 13 14 14 14 14 14 13 12 11 10 9 8 7 6 5 4 3 4 4 3 2 1
20 24 26 30 28 27 30 27 19 17 16 16 16 16 15 15 14 15 14 14 13 13 13 14 14 15 14 14 14 14 13 13 13 12 11 10 9 8 7 7 5 4 3 3 3 3 2 2 1
21 25 21 29 34 31 27 24 19 17 20 17 17 16 16 15 15 15 15 14 14 14 15 15 15 15 15 14 14 13 12 12 12 11 10 9 8 7 7 5 4 3 2 2 2 1 1 1 1
21 19 24 27 29 31 28 31 22 21 21 22 19 20 18 17 16 16 15 15 15 15 16 16 16 16 15 15 14 12 12 11 11 10 9 9 8 7 6 5 4 3 2 1 1 1 1 1 1
21 23 24 24 24 28 30 24 22 22 21 20 20 19 19 19 18 17 16 17 16 16 17 17 16 16 15 14 13 12 12 11 11 10 9 8 7 7 6 5 4 3 3 1 2 2 2 2 2
18 21 20 23 26 28 25 23 21 21 25 27 20 18 17 19 19 19 18 18 17 18 18 18 17 17 15 14 13 12 12 12 11 10 9 8 7 6 6 5 5 5 4 4 3 3 3 3 3